Aérodrome :
LOGIN :

S'inscrire | Disclaimer

   EN    FR    IT 

 










Légende :    VFR   VFR Marginal   IFR   IFR Intensif   IFR Très Intensif
Visi : 
Plafond : 
>= 8 km
>= 3000ft
5 à 8 km
1000 à 3000 ft
1500m à 5 km
500 à 1000 ft
800 à 1500m
200 à 500 ft
< 800m
< 200 ft
Symboles :   Orages  Brouillard  Fortes neiges  Fortes précipitations  Vent > 20 kt
SIGMETs :   Divers  Orages  Givrage  Turbulence  Onde Orograph.  Cendres Volcan.






- Altitude de l'aérodrome : 76 ft
- Code IATA : KID


ESMK - Kristianstad

DERNIER METAR :
  • 042120Z AUTO 10009KT 9999 FEW018/// OVC140/// 12/10 Q0995

METARs EXPIRÉS :
  • 042050Z AUTO 11009KT 080V140 9999 FEW072/// SCT160/// 13/10 Q0995
  • 042020Z AUTO 10009KT 9999 FEW140/// 13/10 Q0996
  • 041950Z AUTO 10011KT 9999 FEW150/// 13/10 Q0996
  • 041920Z AUTO 10010KT 9999 NCD 13/10 Q0996
  • 041850Z AUTO 10010KT 9999 NCD 13/09 Q0997

Prévision TAF périmée.



MET'MAP, la Météo Aéronautique d'un coup d'oeil ! - Copyright ORBIFLY Décembre 2007 - Disclaimer

ORBIFLY MET'MAP TEAM :

Programmation & Développement : Alexandra Zaïnal
Sur une idée originale de : Baudouin d'Aumeries
Assistance à la programmation : Marc-Olivier Méhu
Soutien technique & logistique : Manuel Goepfert

Contact : metmap@orbifly.com




SOURCES & CREDITS :

   NOAA